Satellite: MET-2/21
Catalog number: 22782
Epoch time: 08073.39263740
Element set: 87
Inclination: 082.5508 deg
RA of node: 187.5539 deg
Eccentricity: 0.0022205
Arg of perigee: 194.8134 deg
Mean anomaly: 165.2363 deg
Mean motion: 13.83626992 rev/day
Decay rate: 6.1e-07 rev/day^2
Epoch rev: 73388
Checksum: 322
Satellite: OKEAN-4
Catalog number: 23317
Epoch time: 08072.88290115
Element set: 0532
Inclination: 082.5384 deg
RA of node: 044.9201 deg
Eccentricity: 0.0024051
Arg of perigee: 084.4847 deg
Mean anomaly: 275.9137 deg
Mean motion: 14.82585986 rev/day
Decay rate: 1.73e-06 rev/day^2
Epoch rev: 72401
Checksum: 303
Satellite: NOAA-14
Catalog number: 23455
Epoch time: 08073.36642783
Element set: 61
Inclination: 098.9533 deg
RA of node: 145.5263 deg
Eccentricity: 0.0010087
Arg of perigee: 060.3268 deg
Mean anomaly: 299.8910 deg
Mean motion: 14.13736347 rev/day
Decay rate: -1.38e-06 rev/day^2
Epoch rev: 68081
Checksum: 315
Satellite: SICH-1
Catalog number: 23657
Epoch time: 08072.90697323
Element set: 0330
Inclination: 082.5306 deg
RA of node: 185.8625 deg
Eccentricity: 0.0025708
Arg of perigee: 077.3754 deg
Mean anomaly: 283.0333 deg
Mean motion: 14.81559071 rev/day
Decay rate: 2.67e-06 rev/day^2
Epoch rev: 67596
Checksum: 321
Satellite: NOAA-15
Catalog number: 25338
Epoch time: 08073.49320409
Element set: 387
Inclination: 098.5512 deg
RA of node: 067.8045 deg
Eccentricity: 0.0010030
Arg of perigee: 325.7238 deg
Mean anomaly: 034.3291 deg
Mean motion: 14.24690232 rev/day
Decay rate: 6.1e-07 rev/day^2
Epoch rev: 51117
Checksum: 276
Satellite: RESURS
Catalog number: 25394
Epoch time: 08072.71628537
Element set: 0892
Inclination: 098.4024 deg
RA of node: 121.0166 deg
Eccentricity: 0.0002166
Arg of perigee: 101.0053 deg
Mean anomaly: 259.1370 deg
Mean motion: 14.24154708 rev/day
Decay rate: 6.0e-08 rev/day^2
Epoch rev: 50271
Checksum: 262
Satellite: FENGYUN1
Catalog number: 25730
Epoch time: 08073.81409624
Element set: 361
Inclination: 098.7189 deg
RA of node: 052.8425 deg
Eccentricity: 0.0022384
Arg of perigee: 079.5416 deg
Mean anomaly: 280.8274 deg
Mean motion: 14.07711176 rev/day
Decay rate: 1.41e-06 rev/day^2
Epoch rev: 45554
Checksum: 303
Satellite: OKEAN-0
Catalog number: 25860
Epoch time: 08072.89357183
Element set: 0314
Inclination: 097.7454 deg
RA of node: 067.7261 deg
Eccentricity: 0.0000682
Arg of perigee: 097.0100 deg
Mean anomaly: 263.1188 deg
Mean motion: 14.73507099 rev/day
Decay rate: 3.5e-07 rev/day^2
Epoch rev: 46521
Checksum: 299
Satellite: NOAA-16
Catalog number: 26536
Epoch time: 08072.94019647
Element set: 0849
Inclination: 099.1524 deg
RA of node: 060.0356 deg
Eccentricity: 0.0011123
Arg of perigee: 132.6846 deg
Mean anomaly: 227.5271 deg
Mean motion: 14.12473323 rev/day
Decay rate: 3.29e-06 rev/day^2
Epoch rev: 38518
Checksum: 300
Satellite: NOAA-17
Catalog number: 27453
Epoch time: 08073.42010171
Element set: 845
Inclination: 098.5439 deg
RA of node: 140.7826 deg
Eccentricity: 0.0012026
Arg of perigee: 032.6503 deg
Mean anomaly: 327.5427 deg
Mean motion: 14.23957127 rev/day
Decay rate: 2.36e-06 rev/day^2
Epoch rev: 29717
Checksum: 294
Satellite: NOAA-18
Catalog number: 28654
Epoch time: 08073.40436283
Element set: 350
Inclination: 098.8604 deg
RA of node: 015.5540 deg
Eccentricity: 0.0013532
Arg of perigee: 222.8005 deg
Mean anomaly: 137.2127 deg
Mean motion: 14.11143785 rev/day
Decay rate: 1.72e-06 rev/day^2
Epoch rev: 14496
Checksum: 280
/EX
SB KEPS @ AMSAT $ORB08073.M
Orbital Elements 08073.MISC
HR AMSAT ORBITAL ELEMENTS FOR MANNED AND MISCELLANEOUS SATELLITES
FROM WA5QGD FORT WORTH,TX March 13, 2008
Send Subscribe/unsubscribe to KEPS at
http://www.amsat.org/mailman/listinfo/keps
BID: ORB08073.M
TO ALL RADIO AMATEURS BT
Satellite: HUBBLE
Catalog number: 20580
Epoch time: 08073.75534345
Element set: 92
Inclination: 028.4679 deg
RA of node: 225.6413 deg
Eccentricity: 0.0003876
Arg of perigee: 092.4138 deg
Mean anomaly: 267.6893 deg
Mean motion: 15.00348907 rev/day
Decay rate: 4.18e-06 rev/day^2
Epoch rev: 78063
Checksum: 314
Satellite: UARS
Catalog number: 21701
Epoch time: 08073.79845842
Element set: 313
Inclination: 056.9727 deg
RA of node: 217.3672 deg
Eccentricity: 0.0085274
Arg of perigee: 000.3391 deg
Mean anomaly: 359.7707 deg
Mean motion: 15.50862167 rev/day
Decay rate: 5.850e-05 rev/day^2
Epoch rev: 90769
Checksum: 325
Satellite: PO-34
Catalog number: 25520
Epoch time: 08071.44677032
Element set: 0954
Inclination: 028.4589 deg
RA of node: 113.1202 deg
Eccentricity: 0.0005323
Arg of perigee: 296.4874 deg
Mean anomaly: 063.5173 deg
Mean motion: 15.17147624 rev/day
Decay rate: 5.85e-06 rev/day^2
Epoch rev: 51830
Checksum: 295
Satellite: ISS
Catalog number: 25544
Epoch time: 08073.77889163
Element set: 107
Inclination: 051.6371 deg
RA of node: 148.2068 deg
Eccentricity: 0.0001310
Arg of perigee: 244.5695 deg
Mean anomaly: 215.1945 deg
Mean motion: 15.76395734 rev/day
Decay rate: 2.8385e-04 rev/day^2
Epoch rev: 53347
Checksum: 319
Satellite: OO-38
Catalog number: 26063
Epoch time: 08072.91871125
Element set: 0160
Inclination: 100.2029 deg
RA of node: 130.1083 deg
Eccentricity: 0.0037305
Arg of perigee: 120.6272 deg
Mean anomaly: 239.8584 deg
Mean motion: 14.35829466 rev/day
Decay rate: -1.4e-07 rev/day^2
Epoch rev: 42575
Checksum: 281
Satellite: UWE-1
Catalog number: 28892
Epoch time: 08073.38575568
Element set: 997
Inclination: 098.1059 deg
RA of node: 329.2632 deg
Eccentricity: 0.0017601
Arg of perigee: 352.3999 deg
Mean anomaly: 007.6903 deg
Mean motion: 14.59601567 rev/day
Decay rate: 4.0e-08 rev/day^2
Epoch rev: 12662
Checksum: 336
Satellite: CO-58
Catalog number: 28895
Epoch time: 08072.25954798
Element set: 0970
Inclination: 098.1098 deg
RA of node: 328.4814 deg
Eccentricity: 0.0018138
Arg of perigee: 355.9399 deg
Mean anomaly: 004.1618 deg
Mean motion: 14.59643379 rev/day
Decay rate: 6.4e-07 rev/day^2
Epoch rev: 12634
Checksum: 364
Satellite: NCUBE2
Catalog number: 28897
Epoch time: 08073.67472598
Element set: 501
Inclination: 098.1071 deg
RA of node: 329.8009 deg
Eccentricity: 0.0017536
Arg of perigee: 352.9817 deg
Mean anomaly: 007.1132 deg
Mean motion: 14.59812637 rev/day
Decay rate: 1.29e-06 rev/day^2
Epoch rev: 11883
Checksum: 324
Satellite: FCAL
Catalog number: 29667
Epoch time: 08073.49255770
Element set: 824
Inclination: 051.6298 deg
RA of node: 103.2531 deg
Eccentricity: 0.0008508
Arg of perigee: 348.4409 deg
Mean anomaly: 011.6407 deg
Mean motion: 16.05146837 rev/day
Decay rate: 7.5655e-04 rev/day^2
Epoch rev: 7113
Checksum: 307
Satellite: FALCON
Catalog number: 30776
Epoch time: 08073.91628690
Element set: 267
Inclination: 035.4343 deg
RA of node: 011.2597 deg
Eccentricity: 0.0001820
Arg of perigee: 281.1665 deg
Mean anomaly: 078.8849 deg
Mean motion: 15.02910182 rev/day
Decay rate: 6.29e-06 rev/day^2
Epoch rev: 5580
Checksum: 301
Satellite: MAST
Catalog number: 31126
Epoch time: 08072.17090569
Element set: 0278
Inclination: 098.0481 deg
RA of node: 140.4408 deg
Eccentricity: 0.0093638
Arg of perigee: 272.5707 deg
Mean anomaly: 086.4788 deg
Mean motion: 14.53405254 rev/day
Decay rate: 1.35e-06 rev/day^2
Epoch rev: 04792
Checksum: 308
Satellite: CAPE1
Catalog number: 31130
Epoch time: 08072.71317140
Element set: 0260
Inclination: 098.0506 deg
RA of node: 140.1930 deg
Eccentricity: 0.0101769
Arg of perigee: 273.1192 deg
Mean anomaly: 085.8364 deg
Mean motion: 14.51939347 rev/day
Decay rate: 1.90e-06 rev/day^2
Epoch rev: 04772
Checksum: 272
/EX
More information about the Keps
mailing list